Date String (YYYY-MM-DD hh:mm:ss) UTC,Instrument flags,absolute air pressure of the measurement (hPa),sample flow rate (lpm),inlet stack bypass flow (lpm),air temperature of the measurement (°C),ambient temperature measured by the external sensor (°C),aerosol sample conditioner tube jacket temperature (°C),OPC LED temperature (°C),internal box temperature (°C),relative humidity of the measurement (%),span deviation,mass concentration of particles derived from Lorenz-Mie calculation of OPC scattering (μg/m³),mass concentration of particles derived from Lorenz-Mie calculation of OPC scattering (μg/m³),mass concentration of particles derived from Lorenz-Mie calculation of OPC scattering (μg/m³)
DateTimeUTC,F1_M11,P_M11,Q1_M11,Q2_M11,T1_M11,T2_M11,T3_M11,T4_M11,T5_M11,U1_M11,ZSPAN_M11,X2_M11,X0_M11,X1_M11
2024-05-13 06:00:00,SystemResetWarning,0827.0,5.00,000.00,025.7,025.1,000.0,033.8,027.4,020.4,0000.0,0002.74,0004.44,0002.05
2024-05-13 06:01:00,SystemResetWarning,0827.0,5.00,000.00,025.7,025.1,000.0,033.8,027.5,020.5,0000.0,0002.77,0004.51,0002.05
2024-05-13 06:02:00,SystemResetWarning,0827.0,5.00,000.00,025.7,025.2,000.0,033.8,027.5,020.6,0000.0,0002.77,0004.57,0002.06
2024-05-13 06:03:00,SystemResetWarning,0827.0,5.01,000.00,025.7,025.2,000.0,033.9,027.5,020.5,0000.0,0002.73,0004.48,0002.05
2024-05-13 06:04:00,SystemResetWarning,0827.0,5.01,000.00,025.8,025.2,000.0,033.9,027.5,020.4,0000.0,0002.72,0004.39,0002.04
2024-05-13 06:05:00,SystemResetWarning,0827.0,4.99,000.00,025.8,025.2,000.0,033.9,027.5,020.3,0000.0,0002.71,0004.48,0002.05
2024-05-13 06:06:00,SystemResetWarning,0827.0,4.99,000.00,025.8,025.2,000.0,033.9,027.5,020.3,0000.0,0002.71,0004.70,0002.05
2024-05-13 06:07:00,SystemResetWarning,0827.0,5.00,000.00,025.8,025.2,000.0,033.9,027.5,020.4,0000.0,0002.71,0004.68,0002.06
2024-05-13 06:08:00,SystemResetWarning,0827.0,5.01,000.00,025.8,025.2,000.0,033.9,027.5,020.3,0000.0,0002.68,0004.58,0002.07
2024-05-13 06:09:00,SystemResetWarning,0827.1,5.01,000.00,025.8,025.2,000.0,034.0,027.5,020.3,0000.0,0002.62,0004.39,0002.06
2024-05-13 06:10:00,SystemResetWarning,0827.1,4.99,000.00,025.8,025.3,000.0,034.0,027.6,020.2,0000.0,0002.58,0004.39,0002.06
2024-05-13 06:11:00,SystemResetWarning,0827.1,4.99,000.00,025.8,025.3,000.0,034.0,027.6,020.1,0000.0,0002.63,0004.65,0002.07
2024-05-13 06:12:00,SystemResetWarning,0827.1,5.00,000.00,025.9,025.3,000.0,034.0,027.6,020.2,0000.0,0002.60,0005.21,0002.06
2024-05-13 06:13:00,SystemResetWarning,0827.1,5.01,000.00,025.9,025.3,000.0,034.0,027.6,020.2,0000.0,0002.57,0005.45,0002.04
2024-05-13 06:14:00,SystemResetWarning,0827.1,5.00,000.00,025.9,025.3,000.0,034.0,027.6,020.0,0000.0,0002.58,0005.52,0002.03
2024-05-13 06:15:00,SystemResetWarning,0827.1,4.98,000.00,025.9,025.3,000.0,034.1,027.6,019.9,0000.0,0002.62,0005.58,0002.03
2024-05-13 06:16:00,SystemResetWarning,0827.1,4.99,000.00,025.9,025.3,000.0,034.1,027.6,019.9,0000.0,0002.62,0005.59,0002.03
2024-05-13 06:17:00,SystemResetWarning,0827.0,5.00,000.00,025.9,025.3,000.0,034.1,027.6,020.0,0000.0,0002.62,0005.52,0002.03
2024-05-13 06:18:00,SystemResetWarning,0827.0,5.01,000.00,025.9,025.3,000.0,034.1,027.6,019.9,0000.0,0002.62,0005.50,0002.03
2024-05-13 06:19:00,SystemResetWarning,0827.0,5.01,000.00,025.9,025.4,000.0,034.1,027.7,019.8,0000.0,0002.63,0005.44,0002.04
2024-05-13 06:20:00,SystemResetWarning,0827.1,4.99,000.00,026.0,025.4,000.0,034.1,027.7,019.8,0000.0,0002.67,0006.71,0002.05
2024-05-13 06:21:00,SystemResetWarning,0827.1,4.99,000.00,026.0,025.4,000.0,034.1,027.7,019.8,0000.0,0002.71,0006.83,0002.06
2024-05-13 06:22:00,SystemResetWarning,0827.1,5.00,000.00,026.0,025.4,000.0,034.1,027.7,019.9,0000.0,0002.70,0006.92,0002.07
2024-05-13 06:23:00,SystemResetWarning,0827.1,5.01,000.00,026.0,025.4,000.0,034.1,027.7,019.8,0000.0,0002.70,0007.08,0002.07
2024-05-13 06:24:00,SystemResetWarning,0827.0,5.01,000.00,026.0,025.4,000.0,034.2,027.7,019.8,0000.0,0002.69,0006.83,0002.08
2024-05-13 06:25:00,SystemResetWarning,0827.1,4.99,000.00,026.0,025.4,000.0,034.2,027.7,019.8,0000.0,0002.65,0006.87,0002.07
2024-05-13 06:26:00,SystemResetWarning,0827.1,4.99,000.00,026.0,025.4,000.0,034.2,027.7,019.7,0000.0,0002.61,0007.70,0002.08
2024-05-13 06:27:00,SystemResetWarning,0827.0,5.00,000.00,026.0,025.4,000.0,034.2,027.7,019.6,0000.0,0002.66,0008.20,0002.09
2024-05-13 06:28:00,SystemResetWarning,0827.1,5.01,000.00,026.0,025.4,000.0,034.2,027.7,019.6,0000.0,0002.66,0008.46,0002.08
2024-05-13 06:29:00,SystemResetWarning,0827.0,5.01,000.00,026.0,025.2,000.0,034.2,027.6,019.6,0000.0,0002.71,0009.58,0002.07
2024-05-13 06:30:00,SystemResetWarning,0827.0,4.99,000.00,025.7,023.1,000.0,034.3,026.5,019.8,0000.0,0002.79,0009.78,0002.09
2024-05-13 06:31:00,SystemResetWarning,0826.9,5.02,000.00,025.3,022.0,000.0,034.3,025.8,020.3,0000.0,0002.82,0009.29,0002.09
2024-05-13 06:32:00,SystemResetWarning,0827.0,5.00,000.00,025.0,022.1,000.0,034.1,025.8,020.7,0000.0,0002.84,0009.20,0002.08
2024-05-13 06:33:00,SystemResetWarning,0826.9,4.99,000.00,025.0,022.5,000.0,034.0,026.0,020.7,0000.0,0002.80,0009.04,0002.07
2024-05-13 06:34:00,SystemResetWarning,0826.9,5.00,000.00,025.0,022.8,000.0,033.8,026.2,020.5,0000.0,0002.81,0008.52,0002.08
2024-05-13 06:35:00,SystemResetWarning,0826.9,5.01,000.00,025.0,023.2,000.0,033.7,026.4,020.5,0000.0,0002.82,0008.51,0002.10
2024-05-13 06:36:00,SystemResetWarning,0826.9,5.01,000.00,025.0,023.5,000.0,033.6,026.5,020.5,0000.0,0002.88,0008.54,0002.12
2024-05-13 06:37:00,SystemResetWarning,0827.0,5.00,000.00,025.0,023.7,000.0,033.6,026.6,020.5,0000.0,0002.89,0007.92,0002.12
2024-05-13 06:38:00,SystemResetWarning,0827.0,5.00,000.00,025.1,023.9,000.0,033.6,026.7,020.5,0000.0,0002.84,0007.38,0002.12
2024-05-13 06:39:00,SystemResetWarning,0826.9,4.99,000.00,025.1,024.1,000.0,033.5,026.8,020.4,0000.0,0002.83,0006.73,0002.13
2024-05-13 06:40:00,SystemResetWarning,0827.0,5.00,000.00,025.1,024.2,000.0,033.5,026.8,020.4,0000.0,0002.87,0004.79,0002.16
2024-05-13 06:41:00,SystemResetWarning,0827.0,5.00,000.00,025.2,024.3,000.0,033.5,026.9,020.3,0000.0,0002.86,0004.58,0002.16
2024-05-13 06:42:00,SystemResetWarning,0826.9,5.00,000.00,025.2,024.4,000.0,033.5,026.9,020.2,0000.0,0002.82,0004.39,0002.16
2024-05-13 06:43:00,SystemResetWarning,0826.9,5.00,000.00,025.2,024.5,000.0,033.5,027.0,020.2,0000.0,0002.83,0004.63,0002.19
2024-05-13 06:44:00,SystemResetWarning,0827.0,5.00,000.00,025.3,024.6,000.0,033.5,027.0,020.2,0000.0,0002.90,0004.82,0002.21
2024-05-13 06:45:00,SystemResetWarning,0827.0,5.00,000.00,025.3,024.7,000.0,033.5,027.1,020.2,0000.0,0002.90,0005.11,0002.23
2024-05-13 06:46:00,SystemResetWarning,0827.0,5.00,000.00,025.3,024.8,000.0,033.5,027.1,020.1,0000.0,0002.93,0005.64,0002.24
2024-05-13 06:47:00,SystemResetWarning,0827.0,5.00,000.00,025.4,024.8,000.0,033.5,027.2,020.1,0000.0,0002.93,0005.62,0002.25
2024-05-13 06:48:00,SystemResetWarning,0827.0,4.99,000.00,025.4,024.9,000.0,033.6,027.2,020.1,0000.0,0002.95,0005.56,0002.26
2024-05-13 06:49:00,SystemResetWarning,0827.0,5.00,000.00,025.4,024.9,000.0,033.6,027.2,020.1,0000.0,0002.98,0005.49,0002.27
2024-05-13 06:50:00,SystemResetWarning,0827.1,5.00,000.00,025.5,024.9,000.0,033.6,027.3,020.1,0000.0,0003.01,0005.74,0002.28
2024-05-13 06:51:00,SystemResetWarning,0827.0,5.01,000.00,025.5,025.0,000.0,033.6,027.3,020.1,0000.0,0002.99,0006.39,0002.28
2024-05-13 06:52:00,SystemResetWarning,0827.1,5.00,000.00,025.5,025.0,000.0,033.6,027.3,020.2,0000.0,0002.96,0007.10,0002.28
2024-05-13 06:53:00,SystemResetWarning,0827.0,4.99,000.00,025.6,025.1,000.0,033.7,027.3,020.2,0000.0,0003.00,0007.23,0002.29
2024-05-13 06:54:00,SystemResetWarning,0827.1,4.99,000.00,025.6,025.1,000.0,033.7,027.4,020.1,0000.0,0002.97,0006.88,0002.28
2024-05-13 06:55:00,SystemResetWarning,0827.2,4.99,000.00,025.6,025.1,000.0,033.7,027.4,020.1,0000.0,0002.91,0006.69,0002.28
2024-05-13 06:56:00,SystemResetWarning,0827.1,5.00,000.00,025.7,025.1,000.0,033.7,027.4,020.1,0000.0,0002.91,0006.46,0002.27
2024-05-13 06:57:00,SystemResetWarning,0827.1,5.01,000.00,025.7,025.2,000.0,033.8,027.4,020.0,0000.0,0002.94,0005.99,0002.28
2024-05-13 06:58:00,SystemResetWarning,0827.1,5.01,000.00,025.7,025.2,000.0,033.8,027.5,019.9,0000.0,0002.98,0006.06,0002.27
2024-05-13 06:59:00,SystemResetWarning,0827.1,5.00,000.00,025.7,025.2,000.0,033.8,027.5,019.9,0000.0,0003.00,0006.17,0002.28
